GW5660 Weather Reports


Display with metric or nautical units.
time (UTC)temp
F
wind
direction
speed
MPH
gust
MPH
rain 1hr
in
rain 24hr
in
rain mn
in
humidity
%
barometer
mb
20260503212047 57 0.0 1.0 0.00 0.00 0.00 78 1018.3
20260503211020 58 251 3.0 3.0 0.00 0.00 0.00 78 1018.3
20260503210026 58 263 3.0 4.0 0.00 0.00 0.00 76 1018.2
20260503205019 59 271 4.0 6.0 0.00 0.00 0.00 74 1018.2
20260503204026 58 279 3.0 3.0 0.00 0.00 0.00 72 1018.1
20260503203019 57 290 3.0 3.0 0.00 0.00 0.00 69 1018.0
20260503202026 57 297 2.0 3.0 0.00 0.00 0.00 65 1018.0
20260503201019 58 287 2.0 2.0 0.00 0.00 0.00 65 1018.0
20260503200026 59 288 1.0 2.0 0.00 0.00 0.00 61 1018.1
20260503195019 61 255 2.0 3.0 0.00 0.00 0.00 58 1018.1
20260503194027 61 219 3.0 3.0 0.00 0.00 0.00 57 1017.9
20260503193019 60 276 1.0 2.0 0.00 0.00 0.00 59 1017.8
20260503192026 60 269 5.0 9.0 0.00 0.00 0.00 60 1018.0
20260503191039 60 239 3.0 8.0 0.00 0.00 0.00 59 1017.6
20260503190026 60 181 3.0 7.0 0.00 0.00 0.00 60 1017.5
20260503185018 63 116 3.0 6.0 0.00 0.00 0.00 55 1017.3
20260503184026 64 64 4.0 7.0 0.00 0.00 0.00 53 1017.3
20260503183020 65 69 3.0 6.0 0.00 0.00 0.00 52 1017.3
20260503182026 66 76 2.0 6.0 0.00 0.00 0.00 49 1017.1
20260503181017 67 52 4.0 7.0 0.00 0.00 0.00 48 1017.1
20260503180025 67 48 3.0 6.0 0.00 0.00 0.00 47 1017.1
20260503175016 67 36 3.0 7.0 0.00 0.00 0.00 46 1017.1
20260503174105 68 22 3.0 4.0 0.00 0.00 0.00 45 1017.0
20260503173017 68 13 3.0 4.0 0.00 0.00 0.00 44 1017.0
20260503172024 69 14 4.0 7.0 0.00 0.00 0.00 44 1016.9
20260503171017 69 21 4.0 8.0 0.00 0.00 0.00 42 1016.9
20260503131016 70 25 11.0 19.0 0.00 0.00 0.00 47 1017.2
20260503081017 70 359 9.0 19.0 0.00 0.00 0.00 36 1017.4
20260503072044 68 336 11.0 18.0 0.00 0.00 0.00 42 1017.3
20260503071017 67 329 13.0 22.0 0.00 0.00 0.00 43 1017.3
20260503055017 62 316 10.0 15.0 0.00 0.00 0.00 51 1017.3
20260503054025 61 319 9.0 15.0 0.00 0.00 0.00 52 1017.3
20260503053016 60 318 10.0 15.0 0.00 0.00 0.00 53 1017.3
20260503052024 57 302 3.0 8.0 0.00 0.00 0.00 58 1017.4
20260503051016 55 289 3.0 4.0 0.00 0.00 0.00 60 1017.4
20260503050044 54 292 2.0 4.0 0.00 0.00 0.00 62 1017.3
20260503045017 53 293 3.0 4.0 0.00 0.00 0.00 63 1017.2
20260503044024 52 301 4.0 6.0 0.00 0.00 0.00 64 1017.2
20260503043037 51 291 5.0 7.0 0.00 0.00 0.00 65 1017.2
20260503042024 50 301 5.0 7.0 0.00 0.00 0.00 67 1017.1
20260503041017 49 299 5.0 6.0 0.00 0.00 0.00 68 1017.2
20260503040025 49 295 4.0 6.0 0.00 0.00 0.00 68 1017.1
20260503035037 49 295 4.0 6.0 0.00 0.00 0.00 68 1017.2
20260503034024 48 292 4.0 6.0 0.00 0.00 0.00 68 1017.2
20260503033037 48 291 4.0 6.0 0.00 0.00 0.00 68 1017.3
20260503032024 49 295 5.0 7.0 0.00 0.00 0.00 67 1017.3
20260503031019 49 299 4.0 6.0 0.00 0.00 0.00 66 1017.4
20260503030026 49 296 4.0 6.0 0.00 0.00 0.00 65 1017.4
20260503025018 50 297 4.0 4.0 0.00 0.00 0.00 64 1017.5
20260503024026 50 297 4.0 6.0 0.00 0.00 0.00 63 1017.6
20260503023018 50 293 4.0 7.0 0.00 0.00 0.00 63 1017.6
20260503022026 51 292 4.0 7.0 0.00 0.00 0.00 63 1017.6
20260503021018 51 291 4.0 7.0 0.00 0.00 0.00 63 1017.6
20260503020026 51 292 5.0 8.0 0.00 0.00 0.00 62 1017.8
20260503015018 52 288 5.0 9.0 0.00 0.00 0.00 62 1017.8
20260503014026 52 290 5.0 9.0 0.00 0.00 0.00 62 1017.8
20260503013019 53 292 6.0 8.0 0.00 0.00 0.00 61 1017.9
20260503012026 53 278 5.0 9.0 0.00 0.00 0.00 62 1017.9
20260503011018 52 287 5.0 8.0 0.00 0.00 0.00 63 1018.1
20260503010026 52 295 6.0 10.0 0.00 0.00 0.00 64 1018.2
20260503005018 52 288 6.0 9.0 0.00 0.00 0.00 66 1018.3
20260503004026 52 282 5.0 7.0 0.00 0.00 0.00 66 1018.4
20260503003019 53 286 5.0 7.0 0.00 0.00 0.00 65 1018.6
20260503002026 53 285 4.0 8.0 0.00 0.00 0.00 64 1018.7
20260503001019 53 283 5.0 8.0 0.00 0.00 0.00 63 1018.7
20260503000026 54 286 5.0 9.0 0.00 0.00 0.00 62 1018.8
20260502235038 54 289 6.0 10.0 0.00 0.00 0.00 61 1018.8
20260502234026 53 275 6.0 9.0 0.00 0.00 0.00 61 1019.0
20260502233038 53 284 4.0 6.0 0.00 0.00 0.00 61 1019.0
20260502232026 53 287 4.0 6.0 0.00 0.00 0.00 61 1019.2
20260502231018 53 290 4.0 7.0 0.00 0.00 0.00 61 1019.3
20260502230026 52 286 5.0 7.0 0.00 0.00 0.00 61 1019.6
20260502225018 51 286 4.0 8.0 0.00 0.00 0.00 62 1019.8
20260502224026 51 293 3.0 4.0 0.00 0.00 0.00 63 1019.9
20260502223038 52 293 2.0 4.0 0.00 0.00 0.00 61 1019.9
20260502222027 52 299 4.0 6.0 0.00 0.00 0.00 60 1020.0
20260502221018 52 287 4.0 6.0 0.00 0.00 0.00 61 1020.1
20260502220026 52 292 3.0 4.0 0.00 0.00 0.00 62 1020.1
20260502215018 53 285 3.0 4.0 0.00 0.00 0.00 62 1020.1
20260502214026 52 301 3.0 6.0 0.00 0.00 0.00 62 1020.2
20260502213041 53 300 3.0 4.0 0.00 0.00 0.00 60 1020.3